Simultaneous Nadir Overpasses (SNOs) Predictions

Prediction of SNOs between METOP-A and TERRA Satellite Orbit:

Table of predicted SNOs for the next 14.0 days since TLE Epoch: 11/17/2014
Index Date (METOP-A) Time (METOP-A) Lat,Lon (METOP-A) SZA (METOP-A ) Date (TERRA) Time (TERRA) Lat,Lon (TERRA) SZA (TERRA ) Distance(km) Time Diff (sec)
1 11/17/2014 20:53:32 81.30, -86.08 103.49 11/17/2014 20:53:40 81.29, -86.25 103.47 3.04 8
2 11/17/2014 21:44:12 -81.31, 81.62 76.46 11/17/2014 21:43:06 -81.31, 81.70 76.48 1.59 66
3 11/20/2014 16:27:56 81.30, -19.66 104.13 11/20/2014 16:27:59 81.31, -19.54 104.15 2.32 3
4 11/20/2014 17:18:36 -81.31, 148.07 75.82 11/20/2014 17:17:26 -81.31, 148.06 75.85 0.31 70
5 11/23/2014 11:11:40 -81.30,-120.86 75.33 11/23/2014 11:12:53 -81.30,-121.03 75.32 2.94 73
6 11
